Tacoma, WA

7:49 AM PST on December 08, 2016 (GMT -0800)
McChord Air Force Base

Weather History for KTCM - January, 2014

Change the Weather History Date:

Saturday, January 11, 2014

  Actual Average Record
Temperature  
Mean Temperature 50 °F -  
Max Temperature 57 °F 43 °F 59 °F (1987)
Min Temperature 42 °F 32 °F 14 °F (1993)
Degree Days  
Heating Degree Days 16    
Moisture  
Dew Point 44 °F    
Average Humidity 93    
Maximum Humidity 100    
Minimum Humidity 71    
Precipitation  
Precipitation 0.98 in - - ()
Sea Level Pressure  
Sea Level Pressure 29.51 in    
Wind  
Wind Speed 23 mph (SSW)    
Max Wind Speed 33 mph    
Max Gust Speed 46 mph    
Visibility 9 miles    
Events Rain    
Averages and records for this station are not official NWS values.
T = Trace of Precipitation, MM = Missing Value Source: NWS Daily Summary

Daily Weather History Graph

Daily Weather History Graph

Search for Another Location

Airport or City:

Trip Planner

Search our weather history database for the weather conditions in past years. The results will help you decide how hot, cold, wet, or windy it might be!

Date:

Astronomy

Jan. 11, 2014 Rise Set
Actual Time 7:53 AM PST 4:42 PM PST
Civil Twilight 7:19 AM PST 5:17 PM PST
Nautical Twilight 6:41 AM PST 5:55 PM PST
Astronomical Twilight 6:04 AM PST 6:31 PM PST
Moon 1:33 PM PST (1/11) 4:00 AM PST (1/11)
Length of Visible Light 9h 57m
Length of Day
8h 48m
Waxing Gibbous, 84% of the Moon is Illuminated
Jan 11
Waxing Gibbous
Jan 15
Full
Jan 23
Last Quarter
Jan 30
New
Feb 6
First Quarter

Hourly Weather History & Observations

Time (PST) Temp. Windchill Dew Point Humidity Pressure Visibility Wind Dir Wind Speed Gust Speed Precip Events Conditions
12:05 AM 55.4 °F - 48.2 °F 77% 29.56 in 10.0 mi South 25.3 mph 34.5 mph N/A   Overcast
12:11 AM 55.4 °F - 48.2 °F 77% 29.55 in 10.0 mi South 26.5 mph 34.5 mph N/A Rain Light Rain
12:21 AM 55.4 °F - 48.2 °F 77% 29.54 in 10.0 mi South 28.8 mph 35.7 mph N/A   Scattered Clouds
12:35 AM 55.4 °F - 48.2 °F 77% 29.53 in 10.0 mi South 23.0 mph 33.4 mph N/A Rain Light Rain
12:44 AM 55.4 °F - 48.2 °F 77% 29.53 in 10.0 mi South 23.0 mph 36.8 mph N/A   Mostly Cloudy
12:58 AM 55.9 °F - 48.6 °F 76% 29.53 in 10.0 mi South 23.0 mph 39.1 mph 0.00 in   Mostly Cloudy
1:26 AM 55.4 °F - 48.2 °F 77% 29.51 in 10.0 mi South 29.9 mph 38.0 mph N/A Rain Light Rain
1:43 AM 55.4 °F - 48.2 °F 77% 29.50 in 10.0 mi South 27.6 mph 46.0 mph N/A   Mostly Cloudy
1:58 AM 55.9 °F - 47.7 °F 74% 29.52 in 10.0 mi South 26.5 mph 34.5 mph 0.00 in   Overcast
2:54 AM 57.2 °F - 48.2 °F 72% 29.47 in 10.0 mi SSW 27.6 mph 41.4 mph N/A Rain Light Rain
2:58 AM 57.4 °F - 48.0 °F 71% 29.47 in 10.0 mi South 27.6 mph 41.4 mph 0.00 in Rain Light Rain
3:25 AM 53.6 °F - 51.8 °F 94% 29.46 in 8.0 mi SSW 18.4 mph 29.9 mph N/A   Overcast
3:26 AM 53.6 °F - 51.8 °F 94% 29.46 in 8.0 mi SSW 16.1 mph 29.9 mph N/A Rain Light Rain
3:58 AM 52.5 °F - 52.3 °F 99% 29.45 in 8.0 mi SSW 20.7 mph 28.8 mph 0.14 in Rain Light Rain
4:20 AM 51.8 °F - 51.8 °F 100% 29.47 in 7.0 mi SW 23.0 mph 35.7 mph N/A Rain Light Rain
4:30 AM 48.2 °F - 48.2 °F 100% 29.49 in 2.0 mi WSW 23.0 mph 35.7 mph N/A Rain Rain
4:35 AM 48.2 °F - 48.2 °F 100% 29.50 in 3.0 mi WSW 19.6 mph 33.4 mph N/A Rain Rain
4:40 AM 48.2 °F - 46.4 °F 93% 29.49 in 6.0 mi SW 28.8 mph 39.1 mph N/A Rain Rain
4:45 AM 48.2 °F - 46.4 °F 93% 29.49 in 8.0 mi SW 28.8 mph 39.1 mph N/A Rain Rain
4:50 AM 48.2 °F - 46.4 °F 93% 29.51 in 8.0 mi SW 23.0 mph 39.1 mph N/A Rain Light Rain
4:53 AM 46.4 °F 37.2 °F 46.4 °F 100% 29.50 in 7.0 mi SW 29.9 mph 41.4 mph N/A   Overcast
4:58 AM 47.1 °F - 46.8 °F 99% 29.53 in 7.0 mi SW 25.3 mph 41.4 mph 0.23 in   Overcast
5:29 AM 46.4 °F 37.0 °F 46.4 °F 100% 29.54 in 6.0 mi SW 31.1 mph 35.7 mph N/A Rain Rain
5:49 AM 44.6 °F 36.6 °F 44.6 °F 100% 29.54 in 10.0 mi SSW 19.6 mph 24.2 mph N/A   Mostly Cloudy
5:53 AM 44.6 °F 36.6 °F 44.6 °F 100% 29.54 in 10.0 mi SSW 19.6 mph 24.2 mph N/A Rain Light Rain
5:58 AM 45.1 °F 38.1 °F 44.8 °F 99% 29.56 in 10.0 mi SSW 16.1 mph 26.5 mph 0.05 in Rain Light Rain
6:20 AM 44.6 °F 38.8 °F 44.6 °F 100% 29.54 in 10.0 mi South 11.5 mph 23.0 mph N/A   Mostly Cloudy
6:35 AM 44.6 °F 38.8 °F 44.6 °F 100% 29.54 in 10.0 mi South 11.5 mph - N/A   Overcast
6:40 AM 44.6 °F 38.1 °F 44.6 °F 100% 29.53 in 10.0 mi South 13.8 mph - N/A   Overcast
6:55 AM 44.6 °F 37.4 °F 44.6 °F 100% 29.53 in 10.0 mi South 16.1 mph - N/A Rain Light Rain
6:58 AM 44.2 °F 36.7 °F 44.1 °F 99% 29.55 in 10.0 mi South 17.3 mph - 0.01 in Rain Light Rain
7:09 AM 44.6 °F 36.9 °F 44.6 °F 100% 29.53 in 10.0 mi South 18.4 mph - N/A   Scattered Clouds
7:14 AM 44.6 °F 36.9 °F 44.6 °F 100% 29.54 in 10.0 mi South 18.4 mph - N/A   Mostly Cloudy
7:32 AM 44.6 °F 37.4 °F 44.6 °F 100% 29.54 in 10.0 mi South 16.1 mph - N/A   Mostly Cloudy
7:58 AM 45.1 °F 37.6 °F 43.5 °F 94% 29.56 in 10.0 mi South 18.4 mph 25.3 mph 0.01 in   Mostly Cloudy
8:58 AM 44.8 °F 36.9 °F 44.4 °F 99% 29.56 in 10.0 mi South 19.6 mph 27.6 mph N/A   Mostly Cloudy
9:58 AM 46.9 °F - 43.9 °F 89% 29.49 in 10.0 mi SSE 18.4 mph 31.1 mph N/A   Mostly Cloudy
10:19 AM 46.4 °F 38.1 °F 42.8 °F 87% 29.48 in 10.0 mi South 24.2 mph 27.6 mph N/A Rain Light Rain
10:28 AM 46.4 °F 39.0 °F 42.8 °F 87% 29.47 in 10.0 mi South 19.6 mph 27.6 mph N/A   Overcast
10:34 AM 46.4 °F 38.7 °F 42.8 °F 87% 29.47 in 10.0 mi South 20.7 mph 31.1 mph N/A Rain Light Rain
10:43 AM 46.4 °F 38.3 °F 42.8 °F 87% 29.46 in 10.0 mi South 23.0 mph 32.2 mph N/A   Mostly Cloudy
10:51 AM 48.2 °F - 42.8 °F 82% 29.46 in 10.0 mi South 25.3 mph 33.4 mph N/A Rain Light Rain
10:58 AM 47.1 °F - 42.3 °F 83% 29.47 in 10.0 mi South 20.7 mph 38.0 mph 0.00 in Rain Light Rain
11:20 AM 48.2 °F - 41.0 °F 76% 29.43 in 10.0 mi South 27.6 mph 35.7 mph N/A   Mostly Cloudy
11:29 AM 48.2 °F - 41.0 °F 76% 29.43 in 10.0 mi SSW 26.5 mph 39.1 mph N/A Rain Light Rain
11:54 AM 46.4 °F 36.7 °F 42.8 °F 87% 29.45 in 2.0 mi South 33.4 mph 46.0 mph N/A Rain Rain
11:58 AM 45.7 °F 36.2 °F 43.7 °F 93% 29.47 in 2.0 mi SSW 29.9 mph 46.0 mph 0.12 in Rain Rain
12:03 PM 44.6 °F 35.5 °F 42.8 °F 93% 29.47 in 1.8 mi SSW 25.3 mph 40.3 mph N/A Rain Light Rain
12:08 PM 44.6 °F 35.7 °F 44.6 °F 100% 29.47 in 2.0 mi SSW 24.2 mph 38.0 mph N/A   Overcast
12:13 PM 44.6 °F 36.1 °F 44.6 °F 100% 29.46 in 3.0 mi SSW 21.9 mph 32.2 mph N/A   Overcast
12:23 PM 44.6 °F 36.9 °F 44.6 °F 100% 29.45 in 10.0 mi South 18.4 mph 29.9 mph N/A   Overcast
12:28 PM 44.6 °F 36.6 °F 44.6 °F 100% 29.45 in 10.0 mi SSW 19.6 mph 27.6 mph N/A Rain Light Rain
12:43 PM 44.6 °F 37.2 °F 44.6 °F 100% 29.43 in 9.0 mi South 17.3 mph 27.6 mph N/A Rain Light Rain
12:53 PM 44.6 °F 36.4 °F 44.6 °F 100% 29.42 in 10.0 mi South 20.7 mph 25.3 mph N/A Rain Light Rain
12:58 PM 45.1 °F 37.9 °F 45.0 °F 99% 29.42 in 10.0 mi South 17.3 mph 25.3 mph 0.12 in Rain Light Rain
1:03 PM 44.6 °F 36.9 °F 44.6 °F 100% 29.41 in 10.0 mi South 18.4 mph 25.3 mph N/A Rain Light Rain
1:13 PM 44.6 °F 35.9 °F 44.6 °F 100% 29.42 in 9.0 mi South 23.0 mph 27.6 mph N/A Rain Light Rain
1:28 PM 44.6 °F 35.3 °F 44.6 °F 100% 29.41 in 6.0 mi SSW 26.5 mph 34.5 mph N/A Rain Light Rain
1:30 PM 46.4 °F 38.5 °F 44.6 °F 93% 29.41 in 9.0 mi SSW 21.9 mph 34.5 mph N/A   Mostly Cloudy
1:35 PM 46.4 °F 38.5 °F 44.6 °F 93% 29.40 in 10.0 mi SSW 21.9 mph 34.5 mph N/A   Mostly Cloudy
1:58 PM 46.4 °F 39.0 °F 44.2 °F 92% 29.42 in 10.0 mi SSW 19.6 mph 31.1 mph 0.04 in   Scattered Clouds
1:59 PM 46.4 °F 38.3 °F 44.6 °F 93% 29.40 in 10.0 mi SSW 23.0 mph 28.8 mph N/A Rain Light Rain
2:08 PM 46.4 °F 38.7 °F 44.6 °F 93% 29.40 in 10.0 mi South 20.7 mph 28.8 mph N/A   Mostly Cloudy
2:11 PM 46.4 °F 39.0 °F 44.6 °F 93% 29.40 in 10.0 mi SSW 19.6 mph 25.3 mph N/A Rain Light Rain
2:26 PM 44.6 °F 35.5 °F 44.6 °F 100% 29.42 in 2.0 mi SW 25.3 mph 41.4 mph N/A Rain Rain
2:31 PM 44.6 °F 34.7 °F 44.6 °F 100% 29.42 in 1.8 mi SW 29.9 mph 41.4 mph N/A Rain Light Rain
2:36 PM 44.6 °F 36.1 °F 42.8 °F 93% 29.42 in 3.0 mi SSW 21.9 mph 36.8 mph N/A   Overcast
2:56 PM 42.8 °F 34.0 °F 42.8 °F 100% 29.43 in 9.0 mi South 20.7 mph 31.1 mph N/A   Mostly Cloudy
2:57 PM 42.8 °F 34.3 °F 42.8 °F 100% 29.43 in 10.0 mi South 19.6 mph 31.1 mph N/A   Mostly Cloudy
2:58 PM 42.8 °F 34.5 °F 42.8 °F 100% 29.44 in 10.0 mi SSW 18.4 mph 27.6 mph 0.14 in   Mostly Cloudy
3:03 PM 42.8 °F 34.5 °F 42.8 °F 100% 29.43 in 10.0 mi SSW 18.4 mph - N/A   Mostly Cloudy
3:06 PM 42.8 °F 34.8 °F 42.8 °F 100% 29.43 in 10.0 mi SSW 17.3 mph 26.5 mph N/A Rain Light Rain
3:31 PM 42.8 °F 34.0 °F 42.8 °F 100% 29.44 in 8.0 mi SSW 20.7 mph 27.6 mph N/A Rain Light Rain
3:58 PM 43.3 °F 35.2 °F 43.2 °F 99% 29.47 in 9.0 mi SSW 18.4 mph 24.2 mph 0.06 in Rain Light Rain
4:08 PM 44.6 °F 38.1 °F 42.8 °F 93% 29.45 in 10.0 mi South 13.8 mph 25.3 mph N/A Rain Light Rain
4:23 PM 42.8 °F 34.5 °F 42.8 °F 100% 29.45 in 10.0 mi South 18.4 mph - N/A Rain Light Rain
4:48 PM 44.6 °F 39.7 °F 42.8 °F 93% 29.47 in 6.0 mi SW 9.2 mph - N/A   Overcast
4:58 PM 43.9 °F 35.9 °F 43.7 °F 99% 29.49 in 9.0 mi SSW 18.4 mph 27.6 mph 0.04 in Rain Light Rain
5:03 PM 44.6 °F 37.8 °F 44.6 °F 100% 29.47 in 10.0 mi SSW 15.0 mph 27.6 mph N/A   Overcast
5:08 PM 44.6 °F 37.4 °F 44.6 °F 100% 29.47 in 10.0 mi SSW 16.1 mph 21.9 mph N/A Rain Light Rain
5:13 PM 44.6 °F 36.9 °F 44.6 °F 100% 29.47 in 10.0 mi SSW 18.4 mph - N/A Rain Light Rain
5:28 PM 44.6 °F 36.9 °F 44.6 °F 100% 29.49 in 10.0 mi SW 18.4 mph 25.3 mph N/A Rain Light Rain
5:43 PM 44.6 °F 36.6 °F 44.6 °F 100% 29.50 in 10.0 mi SW 19.6 mph 25.3 mph N/A Rain Light Rain
5:57 PM 44.6 °F 36.4 °F 42.8 °F 93% 29.51 in 10.0 mi SW 20.7 mph 25.3 mph N/A   Mostly Cloudy
5:58 PM 44.6 °F 36.6 °F 42.8 °F 93% 29.53 in 10.0 mi SW 19.6 mph 27.6 mph 0.02 in   Mostly Cloudy
6:04 PM 44.6 °F 35.7 °F 42.8 °F 93% 29.51 in 10.0 mi WSW 24.2 mph 33.4 mph N/A Rain Light Rain
6:29 PM 42.8 °F 34.5 °F 42.8 °F 100% 29.53 in 10.0 mi SW 18.4 mph - N/A   Partly Cloudy
6:58 PM 43.2 °F 35.0 °F 41.5 °F 94% 29.56 in 10.0 mi SW 18.4 mph 28.8 mph 0.00 in   Scattered Clouds
7:13 PM 42.8 °F 34.5 °F 42.8 °F 100% 29.55 in 10.0 mi SW 18.4 mph 28.8 mph N/A   Mostly Cloudy
7:23 PM 44.6 °F 36.9 °F 41.0 °F 87% 29.56 in 10.0 mi SW 18.4 mph 28.8 mph N/A   Scattered Clouds
7:53 PM 44.6 °F 36.9 °F 41.0 °F 87% 29.58 in 10.0 mi SSW 18.4 mph 25.3 mph N/A   Mostly Cloudy
7:58 PM 43.7 °F 35.0 °F 41.7 °F 93% 29.60 in 10.0 mi SW 21.9 mph 27.6 mph N/A   Mostly Cloudy
8:28 PM 44.6 °F 36.9 °F 42.8 °F 93% 29.61 in 10.0 mi SW 18.4 mph 26.5 mph N/A   Overcast
8:53 PM 44.6 °F 35.9 °F 41.0 °F 87% 29.64 in 10.0 mi SW 23.0 mph 32.2 mph N/A   Overcast
8:58 PM 44.8 °F 36.2 °F 41.0 °F 87% 29.67 in 10.0 mi SW 23.0 mph 32.2 mph N/A   Mostly Cloudy
9:18 PM 44.6 °F 35.7 °F 39.2 °F 81% 29.67 in 10.0 mi WSW 24.2 mph 35.7 mph N/A   Scattered Clouds
9:58 PM 44.8 °F 36.4 °F 39.7 °F 82% 29.74 in 10.0 mi WSW 21.9 mph 33.4 mph N/A   Partly Cloudy
10:43 PM 44.6 °F 36.6 °F 41.0 °F 87% 29.77 in 10.0 mi SW 19.6 mph 31.1 mph N/A   Mostly Cloudy
10:58 PM 45.1 °F 37.6 °F 40.3 °F 83% 29.81 in 10.0 mi SW 18.4 mph 35.7 mph N/A   Overcast
11:23 PM 44.6 °F 35.7 °F 39.2 °F 81% 29.80 in 10.0 mi SW 24.2 mph 36.8 mph N/A   Scattered Clouds
11:58 PM 44.4 °F 35.3 °F 36.9 °F 75% 29.84 in 10.0 mi SW 25.3 mph 38.0 mph N/A   Scattered Clouds